Location: Paris
(48.6709°N, 2.3750°E)
Time: 12:21:19
(UTC+02:00)

NOAA 18 - Pass Details

Date: 04 July 2022
Orbit: 839 x 860 km, 98.9° (Epoch: 10 August)

Event Time Altitude Azimuth Distance (km) Brightness Sun altitude
Exits shadow 00:14:17 11° 201° (SSW) 2,412 7.2 -15.0°
Maximum altitude 00:19:03 34° 264° (W) 1,384 6.5 -15.3°
Drops below altitude 10° 00:24:04 10° 329° (NNW) 2,505 9.0 -15.6°
Sets 00:26:42 0° 338° (NNW) 3,448 10.3 -15.8°
